SCP
1 1 0 0 0 0 0 0 0 0 0 0 0 0 0 0 0 0 1 1 1 1 1 2 3 3 3 3 3 2 2 2 2 1 1 1 1 0 0 0 0 0 0
1 1 0 0 1 0 0 0 0 0 0 0 0 0 0 -0 -0 0 0 0 1 1 2 2 2 2 2 2 3 3 3 3 3 2 1 1 1 1 0 0 0 0 0
1 -0 0 0 0 0 0 0 0 0 0 0 0 0 0 0 0 0 -0 -0 0 1 1 2 2 2 2 2 2 3 4 4 4 3 2 2 1 1 1 0 0 0 0
0 -0 0 0 0 0 0 0 0 0 0 0 0 0 0 0 0 0 0 0 0 0 0 1 2 2 2 2 2 1 2 4 3 3 3 3 2 1 1 1 1 1 0
-0 0 0 0 0 0 0 0 0 0 0 0 0 0 0 0 0 0 0 0 0 0 0 1 2 2 3 3 3 2 2 2 2 1 1 2 2 2 2 1 1 1 1
0 0 0 0 0 0 0 0 0 0 0 0 0 0 0 0 0 0 0 0 0 0 0 0 0 0 1 2 1 1 1 1 2 1 1 1 1 1 2 2 1 1 1
0 0 0 0 0 0 0 0 0 0 0 0 0 0 0 0 0 0 0 0 0 0 -0 0 0 0 0 1 1 2 1 1 1 1 2 0 1 1 1 1 1 1 1
0 0 0 0 0 0 0 0 0 0 0 0 0 0 -0 0 0 0 0 0 0 0 0 0 0 0 0 1 3 1 1 1 0 0 1 0 0 1 1 1 1 1 1
0 0 0 0 0 0 0 0 0 0 -0 0 0 0 0 0 0 0 0 0 0 0 0 0 0 0 0 0 1 1 2 1 0 0 0 1 1 1 1 1 0 1 1
0 0 0 0 0 0 0 0 0 0 0 -0 0 0 0 0 0 0 0 0 0 0 0 0 0 0 -0 -0 0 0 0 0 0 0 0 0 0 1 1 0 1 0 0
0 0 0 0 0 0 0 0 0 0 0 0 0 0 0 0 0 0 0 0 0 0 0 0 0 0 0 0 0 0 0 0 0 0 0 0 0 0 0 0 0 1 1
0 0 0 0 0 0 0 0 0 0 0 0 0 0 0 0 0 0 0 0 0 0 0 0 0 0 0 0 0 0 0 0 0 0 0 0 0 0 0 0 1 1 0
0 0 0 0 0 0 0 0 0 0 0 0 0 0 0 0 0 0 0 0 0 0 0 0 0 0 0 0 0 0 0 0 0 0 0 0 0 0 0 0 0 0 0
0 0 0 0 0 0 0 0 0 0 0 0 0 0 0 0 0 0 0 0 0 0 0 0 0 0 0 -0 -0 0 0 0 0 0 0 0 0 0 0 0 0 0 0
0 0 0 0 0 0 0 0 0 0 0 0 0 0 0 0 0 0 0 0 0 0 0 0 0 0 0 -0 0 -0 0 0 0 0 0 0 0 0 0 0 0 0 0
0 0 0 0 0 0 -0 0 0 0 0 0 0 0 0 0 0 0 0 0 0 0 0 0 0 0 0 0 0 0 0 0 0 0 0 0 0 0 0 0 0 0 0
0 0 0 0 0 0 0 0 0 0 0 0 0 0 0 0 0 0 0 0 0 0 0 0 0 0 0 0 0 0 0 0 0 0 0 0 0 0 0 0 0 0 0
0 0 0 0 0 0 0 -0 0 0 0 0 0 0 0 0 0 0 0 0 0 0 0 0 0 0 0 0 0 0 0 0 0 0 0 0 0 0 0 0 0 0 0
0 0 0 0 0 0 0 0 0 0 0 0 0 0 0 0 0 0 0 0 0 0 0 0 0 0 0 0 0 0 0 0 0 0 0 0 0 0 0 0 0 0 0
0 0 0 0 0 0 0 0 -0 -0 0 0 0 0 0 0 0 0 0 0 0 0 0 0 0 0 0 0 0 0 0 0 0 0 0 0 0 0 0 0 0 0 0
0 0 0 0 0 0 0 0 -0 -0 0 0 0 0 0 0 0 0 0 0 -0 -0 -0 0 0 -0 0 0 0 0 0 0 0 0 0 0 0 0 0 0 0 0 0
0 0 0 0 0 0 0 0 0 0 0 0 0 0 0 0 0 0 0 0 0 -0 -0 -0 -0 -0 -0 -0 0 0 0 0 0 0 0 -0 0 0 0 0 0 0 0
0 0 0 0 -0 0 0 -0 -0 0 0 0 0 0 0 0 0 0 0 0 0 0 0 0 0 0 0 0 -0 -0 -0 -0 -0 -0 0 0 0 0 0 0 0 0 0
0 0 0 0 0 0 0 -0 0 0 0 0 0 0 0 0 0 -0 -0 0 -0 -0 -0 -0 -0 -0 0 0 0 0 0 0 -0 0 -0 0 0 0 0 0 0 0 0
-0 -0 -0 0 0 0 0 0 0 0 0 0 0 0 0 0 0 0 0 -0 -0 -0 -0 -0 -0 -0 -0 0 0 0 -0 -0 -0 -0 0 0 -0 0 0 0 0 0 -0
0 0 -0 -0 -0 0 -0 -0 -0 -0 -0 -0 -0 -0 -0 0 -0 -0 -0 -0 -0 -0 -0 -0 -0 -0 -0 -0 -0 0 0 0 0 -0 -0 -0 -0 0 0 0 -0 -0 0
Wind_Speed_500mb
27 29 18 11 7 4 5 1 13 14 17 22 26 30 32 34 40 47 48 45 50 58 59 57 57 64 69 72 75 73 72 72 74 78 74 70 69 67 64 63 61 57 52
22 16 13 9 7 7 5 6 13 16 20 25 30 35 40 45 47 47 45 46 48 53 61 63 71 78 81 85 77 75 76 75 72 76 83 81 77 77 74 71 70 67 62
21 13 18 14 13 19 7 15 15 19 20 28 37 39 38 36 37 44 54 59 58 53 54 61 67 76 72 76 80 75 78 79 77 73 74 84 87 84 84 81 79 77 73
22 27 20 26 17 15 19 12 17 20 29 36 44 47 46 47 47 51 51 49 50 63 73 70 67 67 72 76 73 82 74 74 79 83 82 76 82 90 89 91 90 86 82
24 21 26 23 20 19 15 16 20 28 40 47 49 52 54 53 52 51 54 54 54 61 62 64 68 74 72 80 82 74 83 78 74 82 98 91 87 89 89 95 98 96 91
36 37 32 30 26 17 15 21 28 35 41 46 51 58 60 58 53 52 60 46 55 49 47 54 56 56 59 62 73 69 61 66 74 71 74 87 79 90 84 94 100 104 99
32 37 34 23 13 14 19 27 34 40 46 48 56 63 69 65 58 66 39 49 49 62 68 55 57 59 65 61 63 52 59 61 59 63 72 87 86 80 81 86 96 106 106
29 33 25 18 14 17 22 27 34 42 45 46 52 61 50 77 62 64 58 58 50 57 66 63 53 45 51 51 55 55 48 53 50 56 58 54 64 80 73 80 96 104 108
21 17 16 13 16 20 26 34 40 44 50 51 46 39 37 29 81 74 63 52 57 55 47 46 59 66 73 66 50 35 33 42 45 48 54 59 64 70 79 92 94 127 118
9 15 15 18 20 23 32 36 39 43 51 56 57 53 48 55 65 75 65 72 54 46 56 55 70 66 66 51 46 42 40 40 40 57 66 65 59 66 72 75 81 93 56
10 4 19 28 29 33 39 43 46 51 52 54 53 57 55 53 53 60 75 61 71 56 54 56 68 70 63 58 54 49 59 63 65 53 70 69 68 68 73 81 74 93 90
7 12 16 26 34 41 44 48 54 58 56 54 52 48 49 56 63 68 76 71 64 64 57 63 65 69 69 61 62 64 53 47 53 56 65 64 66 58 53 57 59 45 44
25 27 34 38 41 41 46 50 55 57 54 51 46 47 48 51 53 58 65 77 67 74 70 61 63 69 68 58 54 58 60 60 58 56 50 43 40 43 43 43 45 51 55
35 37 39 41 42 48 49 53 55 55 49 47 47 52 57 55 53 55 60 67 78 65 63 61 69 64 46 68 73 73 66 61 51 46 42 30 27 25 31 37 40 45 48
47 47 45 49 52 53 55 56 54 50 51 52 51 52 53 54 54 54 56 58 55 55 55 57 50 49 67 68 61 48 40 43 45 40 35 27 19 22 36 34 35 36 37
31 37 43 50 50 58 65 61 53 50 52 54 57 59 56 56 50 49 53 58 59 58 51 42 51 61 61 54 40 34 29 28 29 23 12 14 18 22 29 29 28 27 28
30 32 37 40 51 64 62 58 49 53 53 56 57 58 54 54 56 59 57 51 46 45 50 43 44 47 43 35 25 17 14 14 13 8 3 3 6 7 8 13 17 23 28
46 41 43 45 49 58 64 67 60 63 60 59 61 58 59 56 59 57 47 41 39 42 42 41 41 37 22 14 11 11 10 12 11 10 7 7 5 7 10 12 15 16 20
64 56 54 52 49 55 63 68 66 55 49 60 62 54 50 58 52 42 27 33 39 40 41 32 20 8 2 5 6 11 13 14 12 10 12 11 9 5 1 3 7 8 10
56 59 50 49 50 57 61 64 67 71 51 53 49 39 44 41 34 19 25 31 23 17 17 10 5 9 8 11 15 19 19 20 23 22 17 11 12 10 13 4 4 3 7
45 45 44 54 63 72 71 70 73 59 58 46 36 26 20 16 17 15 16 22 23 23 23 21 20 19 20 20 25 27 24 24 25 20 20 18 13 10 12 12 14 18 15
36 37 45 60 67 71 67 55 40 44 47 31 10 1 9 17 26 22 24 28 33 32 30 28 28 28 34 30 23 23 23 25 16 20 13 17 14 13 13 14 19 18 17
48 56 56 60 59 46 43 42 37 42 23 16 11 11 16 23 34 35 38 35 31 29 29 28 26 24 24 25 20 18 14 15 25 21 2 8 11 8 11 16 22 20 14
54 55 56 44 38 36 37 34 32 20 25 22 18 20 17 19 29 35 40 48 53 53 45 37 35 28 23 18 17 14 9 8 22 34 9 6 12 5 8 12 20 18 15
37 33 30 32 29 31 30 16 20 29 31 35 33 27 20 18 20 31 31 35 39 43 43 35 35 32 28 25 18 13 20 15 21 36 18 9 13 5 3 9 20 20 14
15 20 20 17 22 17 9 21 35 37 41 37 31 32 24 20 16 15 18 19 20 21 30 34 32 33 35 35 35 38 33 30 31 26 36 11 9 4 2 6 16 15 10
Wind_Direction_500mb
203 213 222 239 286 326 22 47 357 4 354 343 337 325 318 314 306 300 303 300 291 289 287 286 284 281 283 285 290 290 290 289 278 267 263 259 257 256 254 253 252 252 253
210 221 260 226 166 223 221 327 345 345 323 312 307 302 296 291 290 294 296 294 291 291 291 290 284 285 285 282 286 285 282 287 286 277 267 262 259 256 256 255 254 253 251
199 200 174 217 197 163 203 286 287 289 315 328 321 321 320 314 309 300 293 294 291 293 290 288 288 290 293 289 285 281 283 283 282 281 278 268 262 258 255 255 254 253 253
182 172 184 196 204 229 259 270 292 314 319 323 320 321 321 316 307 303 304 311 311 296 287 291 290 292 289 291 289 282 279 280 281 278 273 274 269 261 257 255 254 253 253
155 161 177 208 229 251 256 287 309 314 320 323 321 320 320 315 312 308 306 307 314 312 308 304 300 301 301 297 295 289 279 284 282 286 280 274 273 268 262 258 256 254 252
177 200 201 216 231 248 292 315 317 317 321 320 317 315 316 315 311 310 314 309 304 306 313 311 314 310 308 309 300 292 289 283 287 286 291 268 269 267 268 262 259 256 254
197 207 211 219 243 284 312 320 321 322 322 321 315 316 316 318 317 317 318 307 300 307 308 316 310 303 304 313 312 310 296 289 286 293 291 280 268 264 267 269 263 259 255
208 202 209 224 261 303 319 325 326 322 322 323 320 314 317 311 317 318 307 312 314 306 307 318 313 314 314 314 310 309 294 292 296 299 298 300 282 265 263 266 264 265 258
225 227 244 268 296 321 332 332 329 328 324 324 321 319 321 304 314 311 309 307 304 312 323 310 308 311 310 310 318 304 293 300 306 303 306 302 289 279 264 270 268 256 244
275 288 292 297 303 334 330 330 327 323 320 318 317 314 304 296 304 308 305 306 315 303 310 308 308 314 322 313 322 312 302 294 311 304 299 298 290 281 275 266 270 282 274
322 302 291 301 310 321 324 324 324 323 321 319 318 316 312 311 311 304 303 308 304 313 311 312 314 315 321 312 305 311 295 301 292 310 301 293 291 284 279 269 273 258 254
207 261 272 285 301 313 317 321 323 321 321 320 318 317 313 310 306 303 301 303 302 308 303 307 308 314 314 307 301 302 303 300 297 295 295 292 289 290 283 269 262 254 213
259 272 279 283 295 306 314 317 317 317 320 322 321 318 313 309 309 305 302 303 304 305 311 313 311 312 312 307 307 305 302 302 303 303 302 299 295 296 288 275 225 209 204
276 277 285 291 301 307 311 314 317 319 323 321 319 315 309 305 305 306 303 300 304 306 307 312 310 314 304 308 313 312 310 311 316 319 321 330 336 298 248 218 200 196 194
281 286 287 290 297 306 313 315 317 318 322 318 316 313 312 308 306 304 295 294 301 309 309 310 312 307 308 310 315 318 322 326 331 332 333 321 269 241 218 196 172 166 172
287 294 299 303 306 312 311 310 316 316 315 313 312 309 306 310 306 302 299 295 292 297 301 304 298 303 307 311 315 318 322 326 332 330 298 272 226 179 189 196 182 185 197
269 272 283 291 302 306 310 299 312 306 307 305 306 308 309 305 304 305 303 302 298 290 292 297 301 309 311 314 311 317 325 338 350 344 349 126 159 175 173 195 215 218 221
265 273 273 284 295 300 299 301 309 300 301 303 302 303 306 306 303 306 307 300 295 294 295 297 305 310 313 310 321 324 352 360 21 25 357 334 296 269 258 246 233 225 226
273 270 279 282 288 289 291 293 301 310 303 297 299 304 306 306 313 309 300 295 299 300 298 300 300 323 60 73 44 36 32 37 45 50 45 60 66 61 19 256 256 257 262
287 281 277 281 283 286 290 295 297 308 297 292 297 290 305 312 315 308 303 304 317 354 3 14 68 102 93 61 50 52 55 62 66 63 63 53 42 50 31 40 102 61 354
283 272 277 277 281 291 290 293 290 294 287 291 273 302 316 353 23 42 42 51 55 55 58 74 81 77 75 74 65 56 51 58 62 52 58 53 42 48 44 48 22 358 358
271 269 276 290 291 293 292 293 290 278 286 241 258 239 47 36 29 47 66 69 70 68 72 74 74 69 72 64 48 61 61 59 48 33 37 44 32 40 44 45 14 5 360
288 292 293 292 290 287 287 283 272 281 235 200 161 124 78 51 39 57 65 66 67 71 73 74 69 57 57 62 59 56 54 52 36 21 292 21 10 23 39 24 14 11 10
292 291 291 284 283 281 279 277 279 221 180 164 171 148 125 78 58 56 68 71 70 67 68 71 69 64 53 42 34 29 34 39 23 17 53 42 12 32 29 18 8 12 11
289 289 290 285 285 283 285 262 191 184 162 146 133 125 112 80 65 61 74 78 73 69 64 65 58 57 60 47 44 25 50 35 22 30 32 30 20 64 24 3 359 2 19
307 305 301 307 287 285 208 173 172 165 146 128 119 122 107 94 78 60 83 75 70 71 65 69 70 60 53 54 62 61 56 54 38 28 24 30 33 77 136 344 350 3 26
Wind_Speed_850mb
27 29 18 11 7 4 5 1 13 14 17 22 26 30 32 34 40 47 48 45 50 58 59 57 57 64 69 72 75 73 72 72 74 78 74 70 69 67 64 63 61 57 52
22 16 13 9 7 7 5 6 13 16 20 25 30 35 40 45 47 47 45 46 48 53 61 63 71 78 81 85 77 75 76 75 72 76 83 81 77 77 74 71 70 67 62
21 13 18 14 13 19 7 15 15 19 20 28 37 39 38 36 37 44 54 59 58 53 54 61 67 76 72 76 80 75 78 79 77 73 74 84 87 84 84 81 79 77 73
22 27 20 26 17 15 19 12 17 20 29 36 44 47 46 47 47 51 51 49 50 63 73 70 67 67 72 76 73 82 74 74 79 83 82 76 82 90 89 91 90 86 82
24 21 26 23 20 19 15 16 20 28 40 47 49 52 54 53 52 51 54 54 54 61 62 64 68 74 72 80 82 74 83 78 74 82 98 91 87 89 89 95 98 96 91
36 37 32 30 26 17 15 21 28 35 41 46 51 58 60 58 53 52 60 46 55 49 47 54 56 56 59 62 73 69 61 66 74 71 74 87 79 90 84 94 100 104 99
32 37 34 23 13 14 19 27 34 40 46 48 56 63 69 65 58 66 39 49 49 62 68 55 57 59 65 61 63 52 59 61 59 63 72 87 86 80 81 86 96 106 106
29 33 25 18 14 17 22 27 34 42 45 46 52 61 50 77 62 64 58 58 50 57 66 63 53 45 51 51 55 55 48 53 50 56 58 54 64 80 73 80 96 104 108
21 17 16 13 16 20 26 34 40 44 50 51 46 39 37 29 81 74 63 52 57 55 47 46 59 66 73 66 50 35 33 42 45 48 54 59 64 70 79 92 94 127 118
9 15 15 18 20 23 32 36 39 43 51 56 57 53 48 55 65 75 65 72 54 46 56 55 70 66 66 51 46 42 40 40 40 57 66 65 59 66 72 75 81 93 56
10 4 19 28 29 33 39 43 46 51 52 54 53 57 55 53 53 60 75 61 71 56 54 56 68 70 63 58 54 49 59 63 65 53 70 69 68 68 73 81 74 93 90
7 12 16 26 34 41 44 48 54 58 56 54 52 48 49 56 63 68 76 71 64 64 57 63 65 69 69 61 62 64 53 47 53 56 65 64 66 58 53 57 59 45 44
25 27 34 38 41 41 46 50 55 57 54 51 46 47 48 51 53 58 65 77 67 74 70 61 63 69 68 58 54 58 60 60 58 56 50 43 40 43 43 43 45 51 55
35 37 39 41 42 48 49 53 55 55 49 47 47 52 57 55 53 55 60 67 78 65 63 61 69 64 46 68 73 73 66 61 51 46 42 30 27 25 31 37 40 45 48
47 47 45 49 52 53 55 56 54 50 51 52 51 52 53 54 54 54 56 58 55 55 55 57 50 49 67 68 61 48 40 43 45 40 35 27 19 22 36 34 35 36 37
31 37 43 50 50 58 65 61 53 50 52 54 57 59 56 56 50 49 53 58 59 58 51 42 51 61 61 54 40 34 29 28 29 23 12 14 18 22 29 29 28 27 28
30 32 37 40 51 64 62 58 49 53 53 56 57 58 54 54 56 59 57 51 46 45 50 43 44 47 43 35 25 17 14 14 13 8 3 3 6 7 8 13 17 23 28
46 41 43 45 49 58 64 67 60 63 60 59 61 58 59 56 59 57 47 41 39 42 42 41 41 37 22 14 11 11 10 12 11 10 7 7 5 7 10 12 15 16 20
64 56 54 52 49 55 63 68 66 55 49 60 62 54 50 58 52 42 27 33 39 40 41 32 20 8 2 5 6 11 13 14 12 10 12 11 9 5 1 3 7 8 10
56 59 50 49 50 57 61 64 67 71 51 53 49 39 44 41 34 19 25 31 23 17 17 10 5 9 8 11 15 19 19 20 23 22 17 11 12 10 13 4 4 3 7
45 45 44 54 63 72 71 70 73 59 58 46 36 26 20 16 17 15 16 22 23 23 23 21 20 19 20 20 25 27 24 24 25 20 20 18 13 10 12 12 14 18 15
36 37 45 60 67 71 67 55 40 44 47 31 10 1 9 17 26 22 24 28 33 32 30 28 28 28 34 30 23 23 23 25 16 20 13 17 14 13 13 14 19 18 17
48 56 56 60 59 46 43 42 37 42 23 16 11 11 16 23 34 35 38 35 31 29 29 28 26 24 24 25 20 18 14 15 25 21 2 8 11 8 11 16 22 20 14
54 55 56 44 38 36 37 34 32 20 25 22 18 20 17 19 29 35 40 48 53 53 45 37 35 28 23 18 17 14 9 8 22 34 9 6 12 5 8 12 20 18 15
37 33 30 32 29 31 30 16 20 29 31 35 33 27 20 18 20 31 31 35 39 43 43 35 35 32 28 25 18 13 20 15 21 36 18 9 13 5 3 9 20 20 14
15 20 20 17 22 17 9 21 35 37 41 37 31 32 24 20 16 15 18 19 20 21 30 34 32 33 35 35 35 38 33 30 31 26 36 11 9 4 2 6 16 15 10
Wind_Direction_850mb
203 213 222 239 286 326 22 47 357 4 354 343 337 325 318 314 306 300 303 300 291 289 287 286 284 281 283 285 290 290 290 289 278 267 263 259 257 256 254 253 252 252 253
210 221 260 226 166 223 221 327 345 345 323 312 307 302 296 291 290 294 296 294 291 291 291 290 284 285 285 282 286 285 282 287 286 277 267 262 259 256 256 255 254 253 251
199 200 174 217 197 163 203 286 287 289 315 328 321 321 320 314 309 300 293 294 291 293 290 288 288 290 293 289 285 281 283 283 282 281 278 268 262 258 255 255 254 253 253
182 172 184 196 204 229 259 270 292 314 319 323 320 321 321 316 307 303 304 311 311 296 287 291 290 292 289 291 289 282 279 280 281 278 273 274 269 261 257 255 254 253 253
155 161 177 208 229 251 256 287 309 314 320 323 321 320 320 315 312 308 306 307 314 312 308 304 300 301 301 297 295 289 279 284 282 286 280 274 273 268 262 258 256 254 252
177 200 201 216 231 248 292 315 317 317 321 320 317 315 316 315 311 310 314 309 304 306 313 311 314 310 308 309 300 292 289 283 287 286 291 268 269 267 268 262 259 256 254
197 207 211 219 243 284 312 320 321 322 322 321 315 316 316 318 317 317 318 307 300 307 308 316 310 303 304 313 312 310 296 289 286 293 291 280 268 264 267 269 263 259 255
208 202 209 224 261 303 319 325 326 322 322 323 320 314 317 311 317 318 307 312 314 306 307 318 313 314 314 314 310 309 294 292 296 299 298 300 282 265 263 266 264 265 258
225 227 244 268 296 321 332 332 329 328 324 324 321 319 321 304 314 311 309 307 304 312 323 310 308 311 310 310 318 304 293 300 306 303 306 302 289 279 264 270 268 256 244
275 288 292 297 303 334 330 330 327 323 320 318 317 314 304 296 304 308 305 306 315 303 310 308 308 314 322 313 322 312 302 294 311 304 299 298 290 281 275 266 270 282 274
322 302 291 301 310 321 324 324 324 323 321 319 318 316 312 311 311 304 303 308 304 313 311 312 314 315 321 312 305 311 295 301 292 310 301 293 291 284 279 269 273 258 254
207 261 272 285 301 313 317 321 323 321 321 320 318 317 313 310 306 303 301 303 302 308 303 307 308 314 314 307 301 302 303 300 297 295 295 292 289 290 283 269 262 254 213
259 272 279 283 295 306 314 317 317 317 320 322 321 318 313 309 309 305 302 303 304 305 311 313 311 312 312 307 307 305 302 302 303 303 302 299 295 296 288 275 225 209 204
276 277 285 291 301 307 311 314 317 319 323 321 319 315 309 305 305 306 303 300 304 306 307 312 310 314 304 308 313 312 310 311 316 319 321 330 336 298 248 218 200 196 194
281 286 287 290 297 306 313 315 317 318 322 318 316 313 312 308 306 304 295 294 301 309 309 310 312 307 308 310 315 318 322 326 331 332 333 321 269 241 218 196 172 166 172
287 294 299 303 306 312 311 310 316 316 315 313 312 309 306 310 306 302 299 295 292 297 301 304 298 303 307 311 315 318 322 326 332 330 298 272 226 179 189 196 182 185 197
269 272 283 291 302 306 310 299 312 306 307 305 306 308 309 305 304 305 303 302 298 290 292 297 301 309 311 314 311 317 325 338 350 344 349 126 159 175 173 195 215 218 221
265 273 273 284 295 300 299 301 309 300 301 303 302 303 306 306 303 306 307 300 295 294 295 297 305 310 313 310 321 324 352 360 21 25 357 334 296 269 258 246 233 225 226
273 270 279 282 288 289 291 293 301 310 303 297 299 304 306 306 313 309 300 295 299 300 298 300 300 323 60 73 44 36 32 37 45 50 45 60 66 61 19 256 256 257 262
287 281 277 281 283 286 290 295 297 308 297 292 297 290 305 312 315 308 303 304 317 354 3 14 68 102 93 61 50 52 55 62 66 63 63 53 42 50 31 40 102 61 354
283 272 277 277 281 291 290 293 290 294 287 291 273 302 316 353 23 42 42 51 55 55 58 74 81 77 75 74 65 56 51 58 62 52 58 53 42 48 44 48 22 358 358
271 269 276 290 291 293 292 293 290 278 286 241 258 239 47 36 29 47 66 69 70 68 72 74 74 69 72 64 48 61 61 59 48 33 37 44 32 40 44 45 14 5 360
288 292 293 292 290 287 287 283 272 281 235 200 161 124 78 51 39 57 65 66 67 71 73 74 69 57 57 62 59 56 54 52 36 21 292 21 10 23 39 24 14 11 10
292 291 291 284 283 281 279 277 279 221 180 164 171 148 125 78 58 56 68 71 70 67 68 71 69 64 53 42 34 29 34 39 23 17 53 42 12 32 29 18 8 12 11
289 289 290 285 285 283 285 262 191 184 162 146 133 125 112 80 65 61 74 78 73 69 64 65 58 57 60 47 44 25 50 35 22 30 32 30 20 64 24 3 359 2 19
307 305 301 307 287 285 208 173 172 165 146 128 119 122 107 94 78 60 83 75 70 71 65 69 70 60 53 54 62 61 56 54 38 28 24 30 33 77 136 344 350 3 26